{"data":{"norad_id":54116,"intl_designator":"2022-138D","name":"ONEWEB-0497","alt_names":[],"object_type":"PAYLOAD","status":"ACTIVE","operator":null,"country":"UK","launch_date":"2022-10-22","launch_site_code":"SRILR","launch_vehicle":null,"mission":null,"orbit_class":"UNKNOWN","rcs_meters":null,"size_class":null,"mass_kg":null,"dimensions":null,"purposes":["comms"],"wikipedia_slug":null,"has_3d_model":false,"image_url":null,"decayed_at":null,"tle_current":{"epoch":"2026-05-25T04:16:09.918912Z","epoch_age_seconds":53060,"freshness":"FRESH","line1":"1 54116U 22138D   26145.17789258  .00000080  00000+0  16800-3 0  9993","line2":"2 54116  87.9154 309.5492 0001751  92.3864 267.7469 13.19726602173774","mean_motion":13.19726602,"eccentricity":0.0001751,"inclination_deg":87.9154,"raan_deg":309.5492,"arg_perigee_deg":92.3864,"mean_anomaly_deg":267.7469,"bstar":0.000168,"rev_number":17377,"period_min":109.11350864776,"perigee_km":1184.4399916993,"apogee_km":1187.0888699804,"semimajor_km":7563.9014308399,"source":"CELESTRAK","updated_at":"2026-05-25T13:38:22.584548Z"}}}